My Profile
  1. Member Settings
  2. My Devices
  3. Sign Out
        More Settings
      Elev 430 ft, 64.844 °N 147.848 °W

      Fairbanks, AK

      Summary

      Temperature (°F)MaxAverageMin
      Max Temperature407.65-18
      Avg Temperature35.821.82-24.84
      Min Temperature33-4.26-32
      Precipitation (in)MaxAverageMinSum
      Precipitation0.190.0200.59
      Dew Point (°F)MaxAverageMin
      Dew Point24.75-5.95-31.37
      Wind (mph)MaxAverageMin
      Wind187.680
      Gust Wind---
      Sea Level Pressure (in)MaxAverageMin
      Sea Level Pressure29.7529.2828.75

      Daily Observations

      DateTemp High/LowDew Pt High/LowHumidityWindMax WindWind GustPressurePrecip.Condition
      11/1/2021 40 °F / 30 °F 26 °F / 22 °F 68 % 13 mph - 29.16 in 0.03 in
      11/2/2021 33 °F / 28 °F 26 °F / 23 °F 80 % 3 mph - 29.07 in 0.09 in
      11/3/2021 31 °F / 22 °F 27 °F / 17 °F 82 % 6 mph - 28.84 in 0 in
      11/4/2021 28 °F / 17 °F 23 °F / 11 °F 79 % 5 mph - 28.94 in 0 in
      11/5/2021 25 °F / 15 °F 20 °F / 9 °F 79 % 6 mph - 28.94 in 0 in
      11/6/2021 28 °F / 18 °F 22 °F / 14 °F 81 % 5 mph - 29.22 in 0.11 in
      11/7/2021 27 °F / 23 °F 21 °F / 17 °F 80 % 6 mph - 29.41 in 0.17 in
      11/8/2021 23 °F / 7 °F 17 °F / -2 °F 69 % 12 mph - 29.44 in 0 in
      11/9/2021 18 °F / 3 °F 8 °F / -5 °F 66 % 9 mph - 29.21 in 0 in
      11/10/2021 7 °F / -9 °F -3 °F / -17 °F 72 % 9 mph - 29.28 in 0 in
      11/11/2021 3 °F / -10 °F -3 °F / -19 °F 71 % 6 mph - 29.31 in 0.01 in
      11/12/2021 7 °F / -7 °F -1 °F / -13 °F 72 % 5 mph - 29.25 in 0.02 in
      11/13/2021 -1 °F / -14 °F -8 °F / -21 °F 70 % 5 mph - 29.53 in 0 in
      11/14/2021 -2 °F / -14 °F -10 °F / -22 °F 69 % 5 mph - 29.64 in 0 in
      11/15/2021 0 °F / -8 °F -8 °F / -16 °F 68 % 3 mph - 29.59 in 0 in
      11/16/2021 2 °F / 0 °F -5 °F / -9 °F 69 % 3 mph - 29.56 in 0 in
      11/17/2021 8 °F / 1 °F -2 °F / -9 °F 65 % 18 mph - 29.52 in 0.07 in
      11/18/2021 9 °F / -15 °F -1 °F / -24 °F 66 % 15 mph - 29.63 in 0.03 in
      11/19/2021 -14 °F / -24 °F -22 °F / -32 °F 69 % 3 mph - 29.8 in 0 in
      11/20/2021 -15 °F / -25 °F -22 °F / -33 °F 67 % 5 mph - 29.61 in 0 in
      11/21/2021 -7 °F / -27 °F -16 °F / -36 °F 66 % 7 mph - 29.37 in 0 in
      11/22/2021 3 °F / 1 °F -7 °F / -13 °F 57 % 16 mph - 29.33 in 0 in
      11/23/2021 2 °F / -13 °F -11 °F / -20 °F 59 % 10 mph - 29.32 in 0 in
      11/24/2021 -8 °F / -18 °F -18 °F / -24 °F 68 % 9 mph - 29.05 in 0 in
      11/25/2021 -1 °F / -20 °F -10 °F / -28 °F 69 % 8 mph - 28.98 in 0.02 in
      11/26/2021 -4 °F / -20 °F -11 °F / -26 °F 72 % 6 mph - 29.36 in 0.04 in
      11/27/2021 -11 °F / -21 °F -18 °F / -29 °F 69 % 5 mph - 29.34 in 0 in
      11/28/2021 -14 °F / -32 °F -23 °F / -37 °F 68 % 6 mph - 29.31 in 0 in
      11/29/2021 -8 °F / -32 °F -16 °F / -36 °F 68 % 9 mph - 29.15 in 0 in
      11/30/2021 7 °F / -10 °F -2 °F / -18 °F 69 % 12 mph - 28.76 in 0 in
      essentialaccessibility.com
      We recognize our responsibility to use data and technology for good. We may use or share your data with our data vendors. Take control of your data.
      Glossary